Back to catalog

COSMOS 1317 DEB

LostHEO
NORAD 35510·DEBRIS·🇷🇺 Russia

Launched Oct 31, 1981 from Plesetsk Cosmodrome

Loading…

Next Passes (next 24 hours)

TLE

StaleSource: Space-Track

Epoch: Apr 12, 2009, 11:53 UTC

1 35510U 81108K   09102.49526896 -.00000593  00000-0  10000-3 0  9995
2 35510  70.8103 357.5432 5424658 155.4697 244.8584  2.00125162  3282

Track COSMOS 1317 DEB in real time with AllMySat

Download on the App Store